Date String (YYYY-MM-DD hh:mm:ss) UTC,Instrument flags,Ambient pressure (hPa),Sample flow (lpm),Bypass flow (lpm),Sample temperature (°C),Ambient temperature (°C),ASC tube jacket temperature (°C),LED temperature (°C),Box temperature (°C),Sample RH (%),Span deviation,Mass concentration (μg/m³),Mass concentration (μg/m³),Mass concentration (μg/m³)
DateTimeUTC,F1_M11,P_M11,Q1_M11,Q2_M11,T1_M11,T2_M11,T3_M11,T4_M11,T5_M11,U1_M11,ZSPAN_M11,X0_M11,X2_M11,X1_M11
2022-12-20 14:00:00,,0829.8,4.97,0.00,21.8,21.0,00.0,30.6,23.6,07.3,0000.0,0017.03,0010.59,0009.84
2022-12-20 14:01:00,,0829.8,5.03,0.00,21.8,20.7,00.0,30.6,23.5,07.0,0000.0,0017.24,0010.68,0009.93
2022-12-20 14:02:00,,0829.8,4.98,0.00,21.8,20.5,00.0,30.6,23.5,06.9,0000.0,0017.40,0010.74,0009.98
2022-12-20 14:03:00,,0829.8,5.04,0.00,21.7,20.4,00.0,30.6,23.4,06.9,0000.0,0017.41,0010.58,0009.83
2022-12-20 14:04:00,,0829.7,4.96,0.00,21.7,20.3,00.0,30.6,23.4,06.7,0000.0,0016.44,0009.76,0009.07
2022-12-20 14:05:00,,0829.9,5.03,0.00,21.7,20.2,00.0,30.6,23.3,06.6,0000.0,0015.19,0008.72,0008.07
2022-12-20 14:06:00,,0829.8,4.96,0.00,21.7,20.1,00.0,30.6,23.3,06.6,0000.0,0012.66,0007.57,0007.02
2022-12-20 14:07:00,,0829.6,5.03,0.00,21.6,20.0,00.0,30.6,23.3,06.6,0000.0,0010.75,0006.54,0006.04
2022-12-20 14:08:00,,0830.0,5.01,0.00,21.6,20.0,00.0,30.6,23.2,06.6,0000.0,0009.74,0005.80,0005.33
2022-12-20 14:09:00,,0829.9,4.98,0.00,21.6,20.0,00.0,30.5,23.2,06.7,0000.0,0009.04,0005.26,0004.83
2022-12-20 14:10:00,,0829.6,5.04,0.00,21.6,20.9,00.0,30.5,23.4,06.7,0000.0,0008.46,0004.75,0004.37
2022-12-20 14:11:00,,0829.6,4.98,0.00,21.8,22.0,00.0,30.5,23.7,06.7,0000.0,0007.60,0004.30,0003.96
2022-12-20 14:12:00,,0829.6,4.98,0.00,21.8,21.9,00.0,30.5,23.8,06.7,0000.0,0006.79,0003.93,0003.63
2022-12-20 14:13:00,,0829.7,5.03,0.00,21.8,21.4,00.0,30.6,23.7,06.7,0000.0,0006.36,0003.74,0003.42
2022-12-20 14:14:00,,0829.8,4.98,0.00,21.8,20.7,00.0,30.6,23.5,07.5,0000.0,0006.52,0004.01,0003.68
2022-12-20 14:15:00,,0829.8,5.03,0.00,21.7,20.2,00.0,30.6,23.3,08.1,0000.0,0008.48,0004.96,0004.56
2022-12-20 14:16:00,,0829.8,4.95,0.00,21.6,19.6,00.0,30.6,23.1,08.3,0000.0,0010.03,0006.13,0005.66
2022-12-20 14:17:00,,0829.6,5.04,0.00,21.5,19.2,00.0,30.6,22.9,08.3,0000.0,0011.63,0007.37,0006.86
2022-12-20 14:18:00,,0829.7,5.03,0.00,21.4,19.0,00.0,30.5,22.8,07.6,0000.0,0012.40,0007.94,0007.41
2022-12-20 14:19:00,,0829.7,4.98,0.00,21.4,20.2,00.0,30.4,23.0,07.3,0000.0,0012.89,0008.30,0007.76
2022-12-20 14:20:00,,0829.7,4.99,0.00,21.5,21.5,00.0,30.4,23.4,07.3,0000.0,0013.29,0008.60,0008.01
2022-12-20 14:21:00,,0829.7,5.04,0.00,21.6,21.5,00.0,30.4,23.5,07.1,0000.0,0013.58,0008.81,0008.21
2022-12-20 14:22:00,,0829.8,4.98,0.00,21.6,21.1,00.0,30.5,23.4,07.1,0000.0,0013.57,0008.92,0008.32
2022-12-20 14:23:00,,0829.8,5.00,0.00,21.6,20.5,00.0,30.5,23.2,07.7,0000.0,0014.51,0009.51,0008.81
2022-12-20 14:24:00,,0829.7,5.01,0.00,21.5,19.9,00.0,30.5,23.0,08.3,0000.0,0017.12,0010.67,0009.95
2022-12-20 14:25:00,,0829.7,5.03,0.00,21.4,19.4,00.0,30.5,22.8,08.2,0000.0,0019.34,0011.51,0010.74
2022-12-20 14:26:00,,0829.7,4.95,0.00,21.3,19.0,00.0,30.4,22.6,07.8,0000.0,0019.09,0011.12,0010.43
2022-12-20 14:27:00,,0829.8,5.04,0.00,21.2,19.4,00.0,30.4,22.7,07.6,0000.0,0017.92,0010.36,0009.72
2022-12-20 14:28:00,,0829.8,4.97,0.00,21.3,20.9,00.0,30.3,23.1,07.3,0000.0,0016.77,0009.43,0008.79
2022-12-20 14:29:00,,0829.8,5.05,0.00,21.5,21.6,00.0,30.3,23.3,07.4,0000.0,0016.33,0009.07,0008.44
2022-12-20 14:30:00,,0829.9,4.97,0.00,21.5,21.1,00.0,30.4,23.2,08.0,0000.0,0017.07,0009.51,0008.83
2022-12-20 14:31:00,,0829.9,5.00,0.00,21.4,20.3,00.0,30.4,23.0,08.5,0000.0,0018.84,0010.56,0009.83
2022-12-20 14:32:00,,0829.9,5.00,0.00,21.3,19.6,00.0,30.4,22.7,08.7,0000.0,0020.44,0011.81,0011.02
2022-12-20 14:33:00,,0830.0,5.04,0.00,21.2,19.0,00.0,30.3,22.5,08.8,0000.2,0022.14,0013.11,0012.23
2022-12-20 14:34:00,,0829.9,4.95,0.00,21.0,18.6,00.0,30.3,22.3,08.9,0001.1,0023.90,0013.97,0013.09
2022-12-20 14:35:00,,0829.8,5.02,0.00,21.1,19.8,00.0,30.2,22.6,08.9,0000.8,0023.98,0014.25,0013.36
2022-12-20 14:36:00,,0829.7,4.98,0.00,21.2,21.0,00.0,30.1,22.9,08.7,0000.4,0023.47,0014.55,0013.67
2022-12-20 14:37:00,,0829.7,5.04,0.00,21.3,21.5,00.0,30.1,23.1,08.6,0000.7,0024.04,0015.18,0014.24
2022-12-20 14:38:00,,0829.8,4.97,0.00,21.3,20.7,00.0,30.2,22.9,08.5,0001.1,0025.45,0015.83,0014.87
2022-12-20 14:39:00,,0829.6,5.01,0.00,21.2,19.9,00.0,30.2,22.7,08.5,0001.9,0026.79,0016.70,0015.67
2022-12-20 14:40:00,,0829.6,4.99,0.00,21.1,19.4,00.0,30.2,22.6,08.5,0001.9,0027.97,0017.54,0016.49
2022-12-20 14:41:00,,0829.5,5.04,0.00,21.1,19.1,00.0,30.2,22.5,08.5,0002.2,0028.76,0017.94,0016.91
2022-12-20 14:42:00,,0829.5,4.95,0.00,21.0,19.0,00.0,30.2,22.4,08.5,0002.1,0027.94,0017.70,0016.70
2022-12-20 14:43:00,,0829.6,5.04,0.00,21.0,19.4,00.0,30.1,22.5,08.6,0002.6,0028.18,0017.36,0016.35
2022-12-20 14:44:00,,0829.6,4.99,0.00,21.1,20.9,00.0,30.0,22.9,08.5,0002.8,0027.77,0016.98,0016.00
2022-12-20 14:45:00,,0829.6,5.00,0.00,21.3,21.6,00.0,30.1,23.1,08.4,0002.5,0026.44,0016.58,0015.61
2022-12-20 14:46:00,,0829.6,4.97,0.00,21.3,20.9,00.0,30.1,23.0,08.5,0002.6,0025.42,0016.20,0015.25
2022-12-20 14:47:00,,0829.8,5.03,0.00,21.2,20.1,00.0,30.1,22.8,08.5,0003.0,0025.10,0015.89,0014.92
2022-12-20 14:48:00,,0829.8,5.00,0.00,21.1,19.4,00.0,30.1,22.5,08.6,0002.8,0024.39,0015.66,0014.72
2022-12-20 14:49:00,,0829.9,4.98,0.00,21.0,18.9,00.0,30.1,22.3,08.7,0002.6,0023.64,0015.62,0014.66
2022-12-20 14:50:00,,0829.9,5.03,0.00,20.8,18.6,00.0,30.0,22.1,08.8,0002.5,0023.43,0015.66,0014.70
2022-12-20 14:51:00,,0829.8,4.97,0.00,20.9,19.8,00.0,30.0,22.4,08.8,0002.2,0023.17,0015.75,0014.80
2022-12-20 14:52:00,,0829.7,5.04,0.00,21.0,21.1,00.0,29.9,22.8,08.6,0001.9,0023.10,0015.84,0014.85
2022-12-20 14:53:00,,0829.6,4.95,0.00,21.1,21.7,00.0,30.0,23.0,08.4,0001.3,0023.08,0015.87,0014.85
2022-12-20 14:54:00,,0829.6,5.04,0.00,21.2,20.9,00.0,30.0,22.9,08.4,0001.8,0022.16,0015.78,0014.76
2022-12-20 14:55:00,,0829.7,4.96,0.00,21.1,20.1,00.0,30.0,22.7,08.4,0002.1,0021.94,0015.73,0014.72
2022-12-20 14:56:00,,0829.7,5.04,0.00,21.0,19.4,00.0,30.0,22.4,08.4,0002.2,0021.91,0015.68,0014.71
2022-12-20 14:57:00,,0829.8,4.95,0.00,20.9,18.9,00.0,30.0,22.2,08.5,0002.4,0021.54,0015.56,0014.63
2022-12-20 14:58:00,,0829.7,5.03,0.00,20.8,18.5,00.0,30.0,22.0,08.4,0002.2,0021.41,0015.43,0014.47
2022-12-20 14:59:00,,0829.7,5.03,0.00,20.7,18.9,00.0,29.9,22.1,08.3,0002.2,0022.10,0015.20,0014.22
